TimeCDT,TemperatureF,Dew PointF,Humidity,Sea Level PressureIn,VisibilityMPH,Wind Direction,Wind SpeedMPH,Gust SpeedMPH,PrecipitationIn,Events,Conditions,WindDirDegrees,DateUTC
12:51 AM,75.9,68.0,76,29.99,10.0,SE,5.8,-,N/A,,Scattered Clouds,140,2013-08-21 05:51:00
1:51 AM,77.0,70.0,79,29.99,10.0,SSE,8.1,-,N/A,,Mostly Cloudy,150,2013-08-21 06:51:00
2:26 AM,75.2,69.8,83,30.04,10.0,East,3.5,-,N/A,,Mostly Cloudy,100,2013-08-21 07:26:00
2:51 AM,77.0,69.1,76,29.99,10.0,ESE,4.6,-,N/A,,Mostly Cloudy,110,2013-08-21 07:51:00
3:51 AM,78.1,70.0,76,29.99,10.0,ESE,4.6,-,N/A,,Mostly Cloudy,120,2013-08-21 08:51:00
4:51 AM,78.1,70.0,76,29.99,10.0,Calm,Calm,-,N/A,,Overcast,0,2013-08-21 09:51:00
5:51 AM,78.1,71.1,79,29.99,10.0,SE,3.5,-,N/A,,Overcast,130,2013-08-21 10:51:00
6:51 AM,75.9,71.1,85,30.00,10.0,ESE,3.5,-,N/A,,Overcast,110,2013-08-21 11:51:00
7:01 AM,75.2,71.6,89,30.06,10.0,ESE,5.8,-,N/A,,Mostly Cloudy,120,2013-08-21 12:01:00
7:51 AM,78.1,72.0,81,30.02,10.0,ESE,3.5,-,N/A,,Mostly Cloudy,110,2013-08-21 12:51:00
8:08 AM,78.8,71.6,78,30.08,10.0,ESE,4.6,-,N/A,,Mostly Cloudy,120,2013-08-21 13:08:00
8:51 AM,81.0,73.0,77,30.03,10.0,Variable,5.8,-,N/A,,Mostly Cloudy,0,2013-08-21 13:51:00
9:51 AM,82.9,73.0,72,30.04,10.0,SSE,9.2,-,N/A,,Mostly Cloudy,150,2013-08-21 14:51:00
10:42 AM,87.8,71.6,58,30.09,10.0,Variable,4.6,-,N/A,,Mostly Cloudy,0,2013-08-21 15:42:00
10:51 AM,86.0,72.0,63,30.04,10.0,Variable,3.5,-,N/A,,Mostly Cloudy,0,2013-08-21 15:51:00
11:51 AM,87.1,72.0,61,30.04,10.0,Variable,5.8,-,N/A,,Mostly Cloudy,0,2013-08-21 16:51:00
12:51 PM,91.0,71.1,52,30.02,10.0,Calm,Calm,-,N/A,,Mostly Cloudy,0,2013-08-21 17:51:00
1:51 PM,93.0,69.1,45,30.00,10.0,Variable,3.5,-,N/A,,Mostly Cloudy,0,2013-08-21 18:51:00
2:51 PM,95.0,66.9,40,29.98,10.0,South,6.9,-,N/A,,Mostly Cloudy,180,2013-08-21 19:51:00
3:51 PM,93.9,66.0,40,29.95,10.0,ENE,10.4,-,N/A,,Mostly Cloudy,70,2013-08-21 20:51:00
4:05 PM,89.6,68.0,49,30.01,10.0,ESE,21.9,27.6,N/A,,Mostly Cloudy,120,2013-08-21 21:05:00
4:15 PM,91.4,68.0,46,30.00,10.0,ESE,21.9,-,N/A,,Mostly Cloudy,120,2013-08-21 21:15:00
4:51 PM,91.0,66.9,45,29.94,10.0,ESE,15.0,23.0,N/A,,Mostly Cloudy,110,2013-08-21 21:51:00
5:51 PM,91.0,66.9,45,29.96,10.0,SE,18.4,24.2,N/A,,Mostly Cloudy,140,2013-08-21 22:51:00
6:51 PM,89.1,68.0,50,29.95,10.0,SE,13.8,-,N/A,,Mostly Cloudy,130,2013-08-21 23:51:00
7:51 PM,82.9,70.0,65,29.96,10.0,SSE,9.2,-,N/A,,Mostly Cloudy,160,2013-08-22 00:51:00
8:51 PM,82.0,71.1,69,29.98,10.0,South,11.5,-,N/A,,Mostly Cloudy,180,2013-08-22 01:51:00
9:51 PM,82.0,70.0,67,30.00,10.0,SSE,8.1,-,N/A,,Mostly Cloudy,150,2013-08-22 02:51:00
10:51 PM,80.1,71.1,74,30.01,10.0,ESE,4.6,-,N/A,,Mostly Cloudy,120,2013-08-22 03:51:00
11:51 PM,80.1,71.1,74,30.01,10.0,East,5.8,-,N/A,,Mostly Cloudy,100,2013-08-22 04:51:00